カタログに戻る

LEMUR 2 AMANDA-SVANTE

運用中科学SSO
NORAD 48269·PAYLOAD·🇺🇸 United States

打ち上げ Apr 29, 2021 から Guiana Space Centre

Loading…

次のパス (今後24時間)

TLE

最新Source: Space-Track

元期: Sep 13, 2026, 23:14 UTC

1 48269U 21034B   26256.96841389  .00035001  00000-0  88918-3 0  9994
2 48269  97.5690 337.9105 0000928 264.8189  95.2950 15.39562168294698

AllMySatでLEMUR 2 AMANDA-SVANTEをリアルタイム追跡

Download on the App Store